This is the latest recevied weather packets stored in our database for station/object PY5AL-13. If no packets are shown the sender has not sent any weather packets the latest 10 day(s).
| Time | Temp. | Humidity | Pressure | Rain* | Wind** | Luminosity | Snow |
|---|---|---|---|---|---|---|---|
| 1788146839 | 72° F | 74% | 761.5 mmHg | - | - | - | - |
| 1788145639 | 72° F | 74% | 761.8 mmHg | - | - | - | - |
| 1788144439 | 71° F | 75% | 763.3 mmHg | - | - | - | - |
| 1788143240 | 72° F | 72% | 761.7 mmHg | - | - | - | - |
| 1788142040 | 72° F | 72% | 761.3 mmHg | - | - | - | - |
| 1788140840 | 72° F | 72% | 761 mmHg | - | - | - | - |
| 1788139640 | 72° F | 72% | 760.9 mmHg | - | - | - | - |
| 1788138440 | 72° F | 72% | 761.6 mmHg | - | - | - | - |
| 1788137240 | 71° F | 74% | 761.3 mmHg | - | - | - | - |
| 1788136040 | 72° F | 72% | 761.8 mmHg | - | - | - | - |
| 1788134840 | 72° F | 73% | 761.9 mmHg | - | - | - | - |
| 1788133640 | 72° F | 72% | 761.7 mmHg | - | - | - | - |
| 1788132440 | 72° F | 73% | 762.4 mmHg | - | - | - | - |
| 1788131240 | 72° F | 72% | 761.9 mmHg | - | - | - | - |
| 1788130040 | 72° F | 73% | 761.8 mmHg | - | - | - | - |
| 1788128840 | 71° F | 74% | 762.3 mmHg | - | - | - | - |
| 1788127640 | 71° F | 73% | 761.6 mmHg | - | - | - | - |
| 1788126440 | 72° F | 71% | 761.4 mmHg | - | - | - | - |
| 1788125240 | 72° F | 72% | 761.6 mmHg | - | - | - | - |
| 1788124040 | 72° F | 72% | 762.2 mmHg | - | - | - | - |
| 1788122840 | 72° F | 72% | 763 mmHg | - | - | - | - |
| 1788121640 | 71° F | 74% | 763.7 mmHg | - | - | - | - |
| 1788120440 | 73° F | 70% | 762.4 mmHg | - | - | - | - |
| 1788119240 | 73° F | 70% | 762.1 mmHg | - | - | - | - |
| 1788118040 | 73° F | 70% | 763.2 mmHg | - | - | - | - |
* Rain since midnight (hover to see other rain measurements)
** Current wind speed in m/s (hover to see current wind gust speed)